Probability
0 0 0 0 0 0 0 0 0 0 0 0 0 0 0 0 0 0 0 0 1 2 3 3 1 0 0 0 1 2 1 0 0 0 0 0 0 0 0 0 0 0 0
0 0 0 0 0 0 0 0 0 0 0 0 0 0 0 0 0 0 0 0 0 2 4 4 2 1 1 0 1 1 1 0 0 0 0 0 0 0 0 0 0 0 0
0 0 0 0 0 0 0 1 1 0 0 0 0 0 0 0 0 0 0 0 0 1 3 4 4 3 3 2 1 1 2 1 0 0 0 0 0 0 0 0 0 0 0
1 1 1 1 0 0 1 2 2 1 0 0 0 0 0 0 0 0 0 0 0 0 1 2 3 3 4 4 2 1 2 2 2 2 1 1 0 0 0 0 0 0 0
2 2 2 2 1 0 1 3 4 2 1 0 0 0 0 0 0 0 0 0 0 0 0 0 1 2 3 4 4 3 2 2 3 3 3 2 1 0 0 0 0 0 0
2 3 3 2 1 0 1 2 3 3 1 0 0 0 0 0 0 0 0 0 0 0 0 0 0 0 1 3 5 4 2 1 2 3 3 2 1 0 0 0 0 0 0
1 2 3 2 1 0 0 1 3 2 1 0 0 0 0 0 0 0 0 0 0 0 0 0 0 0 0 1 3 4 2 1 1 2 3 2 1 0 0 0 0 0 0
1 2 3 2 1 0 0 1 2 2 1 0 0 0 0 0 0 0 0 0 0 0 0 0 0 0 0 0 1 2 2 1 1 1 3 3 1 0 0 0 0 0 0
1 2 3 2 1 0 0 0 1 1 0 0 0 0 0 0 0 0 0 0 0 0 0 0 0 0 0 0 0 0 0 1 1 1 2 3 2 1 0 0 0 0 0
0 1 2 2 1 0 0 0 0 0 0 0 0 0 0 0 0 0 0 0 0 0 0 0 0 0 0 0 0 0 0 0 0 0 1 3 3 1 0 0 0 0 0
0 0 1 1 0 0 0 0 0 0 0 0 0 0 0 0 0 0 0 0 0 0 0 0 0 0 0 0 0 0 0 0 0 0 1 2 3 2 1 0 0 0 0
0 0 0 0 0 0 0 0 0 0 0 0 0 0 0 0 0 0 0 0 0 0 0 0 0 0 0 0 0 0 0 0 0 0 0 1 2 2 1 0 0 0 0
0 0 0 0 0 0 0 0 0 0 0 0 0 0 0 0 0 0 0 0 0 0 0 0 0 0 0 0 0 0 0 0 0 1 0 0 1 1 1 0 0 0 0
0 0 0 0 0 0 0 0 0 0 0 0 0 0 0 0 0 0 0 0 0 0 0 0 0 0 0 0 0 0 0 0 0 0 0 0 0 0 0 0 0 0 0
0 0 0 0 0 0 0 0 0 0 0 0 0 0 0 0 0 0 0 0 0 0 0 0 0 0 0 0 0 0 0 0 0 0 0 0 0 0 0 0 0 0 0
0 0 0 0 0 0 0 0 0 0 0 0 0 0 0 0 0 0 0 0 0 0 0 0 0 0 0 0 0 0 0 0 0 0 0 0 0 0 0 0 0 0 0
0 0 0 0 0 0 0 0 0 0 0 0 0 0 0 0 0 0 0 0 0 0 0 0 0 0 0 0 0 0 0 0 0 0 0 0 0 0 0 0 0 0 0
0 0 0 0 0 0 0 0 0 0 0 0 0 0 0 0 0 0 0 0 0 0 0 0 0 0 0 0 0 0 0 0 0 0 0 0 0 0 0 0 0 0 0
0 0 0 0 0 0 0 0 0 0 0 0 0 0 0 0 0 0 0 0 0 0 0 0 0 0 0 0 0 0 0 0 0 0 0 0 0 0 0 0 0 0 0
0 0 0 0 0 0 0 0 0 0 0 0 0 0 0 0 0 0 0 0 0 0 0 0 0 0 0 0 0 0 0 0 0 0 0 0 0 0 0 0 0 0 0
0 0 0 0 0 0 0 0 0 0 0 0 0 0 0 0 0 0 0 0 0 0 0 0 0 0 0 0 0 0 0 0 0 0 0 0 0 0 0 0 0 0 0
0 0 0 0 0 0 0 0 0 0 0 0 0 0 0 0 0 0 0 0 0 0 0 0 0 0 0 0 0 0 0 0 0 0 0 0 0 0 0 0 0 0 0
0 0 0 0 0 0 0 0 0 0 0 0 0 0 0 0 0 0 0 0 0 0 0 0 0 0 0 0 0 0 0 0 0 0 0 0 0 0 0 0 0 0 0
0 0 0 0 0 0 0 0 0 0 0 0 0 0 0 0 0 0 0 0 0 0 0 0 0 0 0 0 0 0 0 0 0 0 0 0 0 0 0 0 0 0 0
0 0 0 0 0 0 0 0 0 0 0 0 0 0 0 0 0 0 0 0 0 0 0 0 0 0 0 0 0 0 0 0 0 0 0 0 0 0 0 0 0 0 0
0 0 0 0 0 0 0 0 0 0 0 0 0 0 0 0 0 0 0 0 0 0 0 0 0 0 0 0 0 0 0 0 0 0 0 0 0 0 0 0 0 0 0
Wind_Speed
1 1 1 1 1 1 1 1 1 2 2 2 2 2 2 1 1 0 0 1 2 3 4 5 6 6 6 6 7 7 7 7 7 7 7 7 7 7 6 6 6 6 5
1 1 1 0 1 1 1 1 2 2 1 2 2 1 1 1 1 1 1 1 2 2 3 4 5 6 6 7 7 7 7 7 7 7 7 7 6 6 5 5 5 4 4
1 1 1 1 1 1 1 1 2 2 2 2 2 1 1 1 1 1 1 1 1 2 2 3 4 5 6 6 6 7 7 6 6 6 6 6 6 5 5 4 3 3 3
1 1 1 1 1 1 1 1 2 2 2 2 2 1 1 1 1 1 1 1 1 1 2 3 3 4 4 5 5 6 6 6 5 5 5 5 4 4 3 3 2 2 2
1 1 1 1 1 1 1 1 1 2 2 3 2 2 2 2 1 2 2 2 2 3 2 4 5 5 4 4 5 5 5 5 5 4 4 3 3 2 2 2 1 1 1
1 1 1 1 1 1 1 1 2 2 2 3 3 3 2 2 2 2 2 2 2 3 3 3 3 3 5 5 4 4 4 4 4 4 3 2 1 1 1 1 1 1 1
1 2 1 1 1 2 2 2 2 2 2 2 3 2 2 2 2 2 1 1 2 2 3 3 3 2 2 4 4 3 3 3 3 2 2 1 0 1 2 2 2 2 2
1 1 2 2 2 2 2 2 2 2 1 1 3 2 1 1 2 1 1 1 1 2 3 3 3 2 2 2 3 3 2 2 2 1 1 1 1 2 2 3 3 3 3
1 1 2 2 2 2 2 3 3 3 2 1 1 3 3 2 0 1 1 1 1 1 1 2 2 2 2 1 1 3 3 1 1 2 2 3 3 3 3 3 4 4 4
1 1 2 2 2 2 3 3 2 2 4 2 1 1 2 3 2 0 1 1 1 1 0 1 1 1 1 1 1 2 2 2 2 3 4 4 4 4 4 5 5 5 5
0 0 1 2 2 2 2 3 2 2 3 3 3 2 1 1 1 2 2 1 1 0 1 1 1 1 1 1 1 1 1 2 3 4 5 4 4 5 5 6 6 7 7
0 0 1 1 2 2 2 2 3 3 2 3 2 2 2 2 2 2 2 2 1 1 1 1 1 1 1 2 1 1 2 3 4 5 6 5 5 6 6 7 7 8 8
1 1 1 1 2 2 2 2 2 3 3 3 3 2 2 2 2 2 2 2 1 1 1 1 2 2 2 1 1 2 3 3 4 5 7 7 6 6 6 7 8 8 8
2 2 2 2 2 2 2 2 2 2 2 3 3 3 2 2 2 2 3 3 1 1 1 2 1 2 2 1 2 2 2 3 4 5 5 5 5 5 6 6 7 8 8
2 2 2 2 2 2 2 2 2 2 3 3 3 3 2 2 2 2 2 2 3 2 2 2 1 2 2 1 2 2 2 4 4 5 6 5 5 5 6 7 8 8 8
2 2 2 2 2 2 2 2 2 3 3 3 3 3 3 2 2 2 2 1 2 2 2 2 2 1 1 1 2 1 2 4 5 6 6 6 5 6 6 7 7 8 8
3 3 3 3 2 2 2 2 2 3 3 2 2 3 3 3 3 2 2 2 2 2 3 2 1 1 1 1 2 1 2 2 3 6 6 6 6 6 7 7 8 8 9
3 3 3 3 3 2 3 3 3 3 3 3 3 4 4 3 4 3 3 3 2 2 3 3 2 1 1 2 2 2 2 2 2 5 6 7 7 7 8 8 8 8 9
2 3 3 3 3 3 3 3 3 3 3 3 4 4 4 4 4 3 3 3 3 2 2 3 2 1 1 1 1 2 2 2 3 4 6 6 7 7 8 8 9 9 9
3 3 3 3 3 3 3 3 3 3 3 3 3 3 4 5 5 5 4 4 3 3 2 2 2 1 1 1 1 1 2 2 2 3 4 5 7 8 9 9 9 9 10
3 3 3 3 3 3 3 3 3 3 3 2 2 2 3 4 6 5 4 4 4 3 3 2 2 1 2 1 2 2 3 2 3 2 2 3 3 4 5 7 8 9 10
2 2 3 3 3 3 5 6 4 3 3 3 3 2 3 3 4 5 5 5 6 5 4 3 3 3 3 3 2 2 2 2 3 1 2 4 2 4 4 4 8 11 11
2 3 3 4 4 5 6 6 6 3 3 3 3 3 2 2 3 2 3 3 4 5 6 5 4 5 4 4 3 3 3 3 4 2 2 4 3 4 4 5 11 11 11
3 3 3 4 4 4 6 6 6 3 3 3 3 4 3 3 3 3 3 2 2 3 4 3 4 4 4 3 4 4 4 2 2 2 2 4 3 4 4 4 9 10 10
2 3 3 3 4 4 6 6 5 3 3 3 3 3 3 3 5 5 3 3 2 2 2 3 3 3 3 3 3 1 1 1 3 3 1 2 2 4 4 4 5 9 9
3 2 3 3 4 4 5 6 5 3 3 3 2 3 4 4 5 5 4 4 4 3 2 1 1 1 1 2 2 2 3 2 2 3 1 1 2 2 4 3 3 4 5
Wind_Direction
95 68 58 50 68 84 108 101 97 105 106 97 91 99 97 87 65 54 31 82 119 139 149 148 148 149 148 143 135 127 122 116 114 111 109 108 105 102 97 92 88 83 79
139 115 80 71 62 71 93 122 132 123 119 112 95 88 98 93 71 42 51 53 80 116 138 151 153 147 144 141 137 130 126 121 115 113 111 109 106 105 103 99 90 85 81
146 140 147 128 96 97 96 103 106 107 107 101 90 77 88 103 97 49 59 69 59 75 111 134 137 144 144 140 141 138 132 125 119 117 114 109 106 105 101 96 92 80 80
139 156 154 155 141 117 115 120 123 113 111 103 87 62 57 82 87 70 68 78 77 62 63 87 113 121 134 140 138 141 140 131 123 118 113 112 109 108 104 100 95 87 73
169 165 161 166 145 123 122 142 121 125 116 104 89 67 50 53 51 63 72 78 82 77 71 66 73 77 91 118 127 130 128 126 122 121 116 117 123 130 124 116 116 96 69
174 147 149 159 146 131 123 134 134 119 121 113 87 62 42 34 51 52 67 76 84 81 74 72 72 63 70 86 104 114 122 119 126 126 128 120 123 179 197 206 227 266 301
170 152 146 148 145 152 162 152 139 127 121 124 102 72 34 33 59 54 58 71 80 85 81 75 72 66 58 63 74 105 128 130 132 134 131 122 131 266 252 249 258 271 282
185 177 162 167 162 147 147 158 147 144 134 132 132 125 85 357 21 36 58 75 68 86 89 83 85 78 70 60 41 57 113 131 146 176 188 211 253 268 295 280 270 273 280
195 192 183 169 171 165 173 175 163 156 160 158 134 147 156 196 316 356 31 61 73 88 93 96 95 93 85 73 47 30 31 27 208 223 237 246 254 274 280 291 291 286 287
196 179 174 172 174 176 177 180 167 168 161 168 140 104 143 148 159 179 334 1 61 90 134 110 108 111 108 99 51 23 5 346 284 263 263 261 261 271 282 283 289 287 283
217 178 167 165 170 172 181 176 163 172 172 170 168 162 134 112 151 165 209 255 335 296 223 204 187 184 169 155 181 264 327 307 284 275 273 271 269 273 278 283 282 285 283
236 201 173 169 173 175 184 184 175 173 174 166 163 166 165 163 178 170 182 209 237 255 253 227 202 199 198 198 218 261 277 282 282 281 278 278 280 280 281 283 285 285 285
232 224 206 193 188 185 183 179 171 179 177 174 173 171 172 179 173 164 166 190 219 263 258 245 223 209 203 201 221 252 264 274 283 284 284 283 286 287 287 287 289 291 291
217 212 205 201 194 185 181 172 172 187 174 178 180 173 172 178 166 171 171 164 178 264 262 248 242 216 211 203 227 245 247 271 282 287 290 296 304 307 305 300 298 295 294
208 200 199 198 187 183 181 175 180 190 183 186 183 177 180 183 171 175 167 166 166 207 250 244 239 227 216 203 235 220 224 263 275 283 289 291 296 298 298 299 298 296 293
198 195 196 199 192 186 180 177 185 195 186 196 183 173 184 180 175 172 170 170 178 191 232 241 235 236 237 246 260 248 243 280 280 278 284 287 290 292 291 290 291 292 290
199 199 194 192 190 190 188 183 200 192 181 182 179 180 193 180 178 179 171 173 189 186 223 262 258 247 245 244 277 263 260 253 266 279 282 282 283 285 287 288 287 288 287
209 203 192 187 190 194 191 188 194 195 185 187 194 191 201 184 181 184 180 183 198 199 199 233 259 253 251 246 251 259 275 276 262 281 284 284 280 281 284 284 282 282 282
215 205 192 190 193 196 196 198 194 197 199 202 199 194 199 184 192 193 188 193 196 197 189 197 234 249 262 261 271 282 281 275 280 281 281 280 280 284 287 285 283 282 281
213 207 204 203 200 200 201 201 195 195 203 211 207 200 201 195 198 194 194 196 187 181 177 185 212 240 246 259 236 268 293 285 287 292 280 284 285 285 286 285 282 280 279
220 211 202 205 203 201 202 197 196 197 198 202 209 210 212 208 206 203 201 193 183 184 185 195 216 237 243 245 245 250 272 288 287 268 273 280 281 275 277 282 282 279 279
225 209 205 201 205 216 211 209 204 198 198 197 205 208 212 212 211 213 213 208 197 195 198 207 220 226 236 232 230 251 259 281 279 259 269 284 277 272 272 265 279 283 282
223 219 213 203 209 217 215 210 207 200 198 203 204 201 209 210 208 195 206 217 225 232 224 212 215 229 230 224 213 235 246 255 266 268 270 277 275 269 270 278 284 282 283
218 222 221 213 215 221 216 211 203 193 191 203 207 206 203 209 207 195 189 199 219 234 232 220 218 230 230 219 214 224 232 250 281 280 238 262 272 271 285 280 280 280 287
222 224 219 211 214 225 217 210 201 188 194 208 210 206 202 207 209 203 192 198 215 239 249 229 238 248 250 249 232 198 213 249 283 281 236 243 272 290 286 275 279 290 295
221 224 225 219 214 220 215 207 198 187 194 201 206 206 206 210 218 213 201 196 211 224 206 208 240 274 269 255 242 215 208 230 265 270 229 234 270 303 299 281 279 291 292